JE2VQT13 Weather Reports


time (UTC)temp
C
wind
direction
speed
KPH
gust
KPH
rain 1hr
cm
rain 24hr
cm
rain mn
cm
humidity
%
barometer
mb
20260505214510 15 190 0.0 0.0 0.00 0.00 0.00 80 1022.1
20260505211508 15 190 0.0 3.2 0.00 0.00 0.00 80 1021.8
20260505210009 15 190 1.6 3.2 0.00 0.00 0.00 79 1021.5
20260505204510 15 190 0.0 1.6 0.00 0.00 0.00 79 1021.6
20260505203009 15 190 0.0 1.6 0.00 0.00 0.00 78 1021.7
20260505201510 15 190 0.0 0.0 0.00 0.00 0.00 78 1021.8
20260505200009 15 190 0.0 0.0 0.00 0.00 0.00 78 1021.8
20260505193010 16 190 0.0 3.2 0.00 0.00 0.00 73 1021.9
20260505191509 16 190 0.0 3.2 0.00 0.00 0.00 67 1021.9
20260505190009 16 190 0.0 1.6 0.00 0.00 0.00 64 1021.6
20260505183009 16 190 0.0 0.0 0.00 0.00 0.00 63 1021.7
20260505181509 16 190 0.0 1.6 0.00 0.00 0.00 62 1021.7
20260505180009 16 190 0.0 0.0 0.00 0.00 0.00 62 1021.6
20260505174509 16 190 0.0 0.0 0.00 0.00 0.00 62 1021.9
20260505173009 16 190 0.0 1.6 0.00 0.00 0.00 63 1021.7
20260505171510 16 190 0.0 0.0 0.00 0.00 0.00 62 1021.6
20260505170009 16 190 0.0 0.0 0.00 0.00 0.00 62 1021.6
20260505164510 16 190 0.0 1.6 0.00 0.00 0.00 62 1021.6
20260505163009 16 190 0.0 0.0 0.00 0.00 0.00 62 1021.6
20260505153009 16 190 0.0 0.0 0.00 0.00 0.00 61 1021.8
20260505151510 16 190 0.0 0.0 0.00 0.00 0.00 60 1022.1
20260505124510 17 190 0.0 0.0 0.00 0.00 0.00 56 1022.5
20260505123009 17 190 0.0 0.0 0.00 0.00 0.00 54 1022.4
20260505121509 17 190 0.0 0.0 0.00 0.00 0.00 54 1022.2
20260505120008 17 190 0.0 1.6 0.00 0.00 0.00 53 1022.1
20260505114509 17 190 0.0 1.6 0.00 0.00 0.00 53 1022.0
20260505113009 17 190 1.6 3.2 0.00 0.00 0.00 53 1021.9
20260505111509 17 179 0.0 4.8 0.00 0.00 0.00 53 1021.8
20260505101508 18 186 1.6 8.0 0.00 0.00 0.00 55 1021.5
20260505100008 18 185 4.8 11.3 0.00 0.00 0.00 55 1021.3
20260505093008 18 189 1.6 9.7 0.00 0.00 0.00 55 1020.9
20260505091509 18 180 3.2 9.7 0.00 0.00 0.00 55 1020.7
20260505090009 18 191 3.2 9.7 0.00 0.00 0.00 55 1020.6
20260505084510 19 196 3.2 14.5 0.00 0.00 0.00 53 1020.6
20260505083009 20 183 4.8 14.5 0.00 0.00 0.00 50 1020.4
20260505081508 20 184 3.2 12.9 0.00 0.00 0.00 50 1020.4
20260505080008 20 192 3.2 11.3 0.00 0.00 0.00 49 1020.3
20260505074508 20 175 4.8 11.3 0.00 0.00 0.00 49 1020.1
20260505073009 20 187 3.2 11.3 0.00 0.00 0.00 48 1020.1
20260505071508 20 185 3.2 11.3 0.00 0.00 0.00 48 1020.1
20260505070010 20 183 3.2 12.9 0.00 0.00 0.00 48 1020.0
20260505064508 21 196 3.2 9.7 0.00 0.00 0.00 49 1019.9
20260505063008 21 189 4.8 16.1 0.00 0.00 0.00 49 1019.8
20260505061509 21 181 4.8 19.3 0.00 0.00 0.00 47 1019.7
20260505060010 21 211 3.2 9.7 0.00 0.00 0.00 45 1019.6
20260505054509 21 182 3.2 12.9 0.00 0.00 0.00 44 1019.4
20260505053009 21 191 3.2 16.1 0.00 0.00 0.00 43 1019.5
20260505041510 22 190 1.6 9.7 0.00 0.00 0.00 30 1019.2
20260505040009 22 191 3.2 11.3 0.00 0.00 0.00 29 1019.3
20260505034508 22 174 1.6 8.0 0.00 0.00 0.00 31 1019.4
20260505031508 21 190 1.6 8.0 0.00 0.00 0.00 30 1019.6
20260505030009 21 194 0.0 4.8 0.00 0.00 0.00 29 1019.6
20260505024510 21 190 0.0 4.8 0.00 0.00 0.00 31 1019.8
20260505023008 21 193 1.6 4.8 0.00 0.00 0.00 30 1019.7
20260505021509 21 158 0.0 3.2 0.00 0.00 0.00 31 1020.1
20260505020009 21 190 0.0 1.6 0.00 0.00 0.00 30 1020.3
20260505014508 21 45 0.0 3.2 0.00 0.00 0.00 33 1020.3
20260505013009 20 190 0.0 3.2 0.00 0.00 0.00 34 1020.5
20260505011508 20 190 0.0 1.6 0.00 0.00 0.00 34 1020.4
20260505010008 20 205 0.0 3.2 0.00 0.00 0.00 35 1020.4
20260505004508 19 190 0.0 1.6 0.00 0.00 0.00 37 1020.3
20260505003008 18 190 0.0 3.2 0.00 0.00 0.00 39 1020.2
20260505001508 17 192 0.0 4.8 0.00 0.00 0.00 40 1020.1
20260505000008 18 131 0.0 3.2 0.00 0.00 0.00 42 1020.1
20260504234508 17 190 0.0 1.6 0.00 0.00 0.00 42 1020.1
20260504233010 16 190 0.0 3.2 0.00 0.00 0.00 43 1020.1
20260504231508 16 191 0.0 1.6 0.00 0.00 0.00 47 1020.3
20260504230008 16 190 0.0 1.6 0.00 0.00 0.00 48 1020.2
20260504223009 16 190 0.0 0.0 0.00 0.00 0.00 50 1020.2
20260504221507 15 190 0.0 1.6 0.00 0.00 0.00 54 1019.9
20260504220007 14 190 0.0 1.6 0.00 0.00 0.00 57 1019.7